TimeCEST,TemperatureF,Dew PointF,Humidity,Sea Level PressureIn,VisibilityMPH,Wind Direction,Wind SpeedMPH,Gust SpeedMPH,PrecipitationIn,Events,Conditions,WindDirDegrees,DateUTC
12:15 AM,59.0,59.0,100,30.01,2.5,West,8.9,-,N/A,,Overcast,280,2012-10-02 22:15:00
12:45 AM,59.0,57.2,94,30.01,2.5,West,8.9,-,N/A,,Overcast,280,2012-10-02 22:45:00
1:15 AM,59.0,57.2,94,30.01,2.5,West,8.9,-,N/A,,Overcast,280,2012-10-02 23:15:00
1:45 AM,59.0,57.2,94,30.01,2.5,West,6.7,-,N/A,,Overcast,270,2012-10-02 23:45:00
2:15 AM,57.2,57.2,100,30.01,2.5,West,8.9,-,N/A,,Overcast,280,2012-10-03 00:15:00
2:45 AM,59.0,57.2,94,30.01,2.5,West,8.9,-,N/A,,Overcast,260,2012-10-03 00:45:00
3:00 AM,-9999,-9999,N/A,-9999,3.1,West,8.9,-,N/A,,Mostly Cloudy,270,2012-10-03 01:00:00
3:15 AM,57.2,57.2,100,30.01,1.9,West,11.2,-,N/A,,Overcast,270,2012-10-03 01:15:00
3:45 AM,-9999,-9999,N/A,-9999,3.1,West,11.2,-,N/A,,Mostly Cloudy,270,2012-10-03 01:45:00
4:15 AM,57.2,55.4,94,30.01,3.1,West,11.2,-,N/A,,Mostly Cloudy,260,2012-10-03 02:15:00
4:45 AM,57.2,55.4,94,30.01,3.1,West,11.2,-,N/A,,Scattered Clouds,260,2012-10-03 02:45:00
5:15 AM,57.2,55.4,94,30.01,3.1,WSW,8.9,-,N/A,,Scattered Clouds,250,2012-10-03 03:15:00
5:45 AM,55.4,55.4,100,30.01,3.1,WSW,8.9,-,N/A,,Partly Cloudy,250,2012-10-03 03:45:00
6:15 AM,55.4,53.6,94,30.01,3.1,West,8.9,-,N/A,,Partly Cloudy,260,2012-10-03 04:15:00
6:45 AM,55.4,51.8,88,30.01,4.3,WSW,8.9,-,N/A,,Unknown,250,2012-10-03 04:45:00
7:15 AM,55.4,51.8,88,30.01,5.0,WSW,8.9,-,N/A,,Unknown,250,2012-10-03 05:15:00
7:45 AM,55.4,51.8,88,30.04,-9999.0,West,8.9,-,N/A,,Clear,260,2012-10-03 05:45:00
8:15 AM,57.2,51.8,82,30.04,-9999.0,West,8.9,-,N/A,,Clear,270,2012-10-03 06:15:00
8:45 AM,57.2,53.6,88,30.04,-9999.0,West,8.9,-,N/A,,Clear,270,2012-10-03 06:45:00
9:15 AM,59.0,53.6,82,30.04,-9999.0,West,8.9,-,N/A,,Clear,280,2012-10-03 07:15:00
9:45 AM,-9999,-9999,N/A,-9999,6.2,West,11.2,-,N/A,,Clear,270,2012-10-03 07:45:00
10:15 AM,62.6,53.6,72,30.06,-9999.0,West,11.2,-,N/A,,Clear,260,2012-10-03 08:15:00
10:45 AM,64.4,51.8,64,30.06,-9999.0,West,15.7,-,N/A,,Clear,270,2012-10-03 08:45:00
11:15 AM,64.4,48.2,56,30.06,-9999.0,West,15.7,-,N/A,,Clear,280,2012-10-03 09:15:00
11:45 AM,66.2,48.2,52,30.06,-9999.0,West,15.7,-,N/A,,Clear,280,2012-10-03 09:45:00
12:15 PM,66.2,48.2,52,30.06,6.2,West,15.7,-,N/A,,Partly Cloudy,280,2012-10-03 10:15:00
12:45 PM,-9999,-9999,N/A,-9999,-9999.0,West,13.4,26.8,N/A,,Clear,270,2012-10-03 10:45:00
1:15 PM,68.0,46.4,46,30.04,6.2,West,15.7,-,N/A,,Partly Cloudy,280,2012-10-03 11:15:00
1:45 PM,69.8,46.4,43,30.04,-9999.0,West,15.7,-,N/A,,Clear,280,2012-10-03 11:45:00
2:15 PM,69.8,46.4,43,30.04,-9999.0,WNW,15.7,-,N/A,,Clear,290,2012-10-03 12:15:00
2:45 PM,69.8,46.4,43,30.04,-9999.0,West,13.4,-,N/A,,Clear,280,2012-10-03 12:45:00
3:15 PM,69.8,44.6,40,30.04,-9999.0,West,13.4,-,N/A,,Clear,280,2012-10-03 13:15:00
3:45 PM,-9999,-9999,N/A,-9999,-9999.0,West,6.7,-,N/A,,Clear,270,2012-10-03 13:45:00
4:15 PM,69.8,46.4,43,30.04,-9999.0,West,11.2,-,N/A,,Clear,270,2012-10-03 14:15:00
4:45 PM,68.0,44.6,43,30.04,-9999.0,West,11.2,-,N/A,,Clear,270,2012-10-03 14:45:00
5:15 PM,68.0,44.6,43,30.04,-9999.0,West,11.2,-,N/A,,Clear,270,2012-10-03 15:15:00
6:15 PM,64.4,46.4,52,30.04,-9999.0,West,4.5,-,N/A,,Clear,270,2012-10-03 16:15:00
6:45 PM,-9999,-9999,N/A,-9999,3.1,West,4.5,-,N/A,,Clear,270,2012-10-03 16:45:00
7:15 PM,57.2,50.0,77,30.04,-9999.0,West,2.2,-,N/A,,Clear,270,2012-10-03 17:15:00
7:45 PM,57.2,50.0,77,30.06,-9999.0,West,2.2,-,N/A,,Clear,270,2012-10-03 17:45:00
8:15 PM,57.2,50.0,77,30.06,-9999.0,Calm,Calm,-,N/A,,Clear,0,2012-10-03 18:15:00
8:45 PM,55.4,50.0,82,30.06,-9999.0,Calm,Calm,-,N/A,,Clear,0,2012-10-03 18:45:00
9:15 PM,55.4,50.0,82,30.06,-9999.0,WNW,2.2,-,N/A,,Clear,300,2012-10-03 19:15:00
9:45 PM,-9999,-9999,N/A,-9999,1.9,Variable,4.5,-,N/A,,Clear,0,2012-10-03 19:45:00
10:15 PM,53.6,50.0,88,30.06,-9999.0,West,2.2,-,N/A,,Clear,280,2012-10-03 20:15:00
10:45 PM,51.8,50.0,94,30.06,-9999.0,West,2.2,-,N/A,,Clear,280,2012-10-03 20:45:00
11:15 PM,51.8,50.0,94,30.06,-9999.0,West,2.2,-,N/A,,Clear,260,2012-10-03 21:15:00
11:45 PM,50.0,48.2,94,30.06,-9999.0,West,2.2,-,N/A,,Clear,280,2012-10-03 21:45:00